EN

Hourly Weather Ladynec

Today, 28 July, Wednesday

Time Temperature Precipitation Wind Pressure Humidity
00:00 +19°C° 0.2 mm 3 mps 747 mmHg 93%
01:00 +18°C° 0.2 mm 3 mps 746 mmHg 94%
02:00 +18°C° 0 mm 3 mps 746 mmHg 97%
03:00 +18°C° 0.1 mm 2 mps 746 mmHg 97%
04:00 +18°C° 0.1 mm 2 mps 745 mmHg 97%
05:00 +19°C° 0.1 mm 1 mps 745 mmHg 97%
06:00 +20°C° 0 mm 1 mps 745 mmHg 94%
07:00 +21°C° 0 mm 1 mps 745 mmHg 91%
08:00 +22°C° 0 mm 1 mps 745 mmHg 87%
09:00 +23°C° 0 mm 2 mps 745 mmHg 81%
10:00 +24°C° 0 mm 2 mps 745 mmHg 75%
11:00 +25°C° 0 mm 2 mps 745 mmHg 70%
12:00 +26°C° 0 mm 3 mps 744 mmHg 63%
13:00 +28°C° 0 mm 3 mps 744 mmHg 56%
14:00 +29°C° 0 mm 3 mps 744 mmHg 49%
15:00 +29°C° 0 mm 3 mps 744 mmHg 50%
16:00 +29°C° 0 mm 3 mps 743 mmHg 51%
17:00 +29°C° 0 mm 3 mps 743 mmHg 52%
18:00 +27°C° 0 mm 3 mps 743 mmHg 56%
19:00 +26°C° 0 mm 2 mps 743 mmHg 61%
20:00 +24°C° 0 mm 2 mps 743 mmHg 66%
21:00 +23°C° 0 mm 2 mps 743 mmHg 70%
22:00 +21°C° 0 mm 2 mps 743 mmHg 74%
23:00 +20°C° 0 mm 2 mps 743 mmHg 78%

Tomorrow, 29 July, Thursday

Time Temperature Precipitation Wind Pressure Humidity
00:00 +20°C° 0 mm 2 mps 743 mmHg 82%
01:00 +19°C° 0 mm 2 mps 743 mmHg 85%
02:00 +18°C° 0 mm 2 mps 743 mmHg 88%
03:00 +18°C° 0 mm 2 mps 743 mmHg 88%
04:00 +18°C° 0 mm 2 mps 743 mmHg 87%
05:00 +18°C° 0 mm 2 mps 743 mmHg 87%
06:00 +20°C° 0 mm 2 mps 743 mmHg 78%
07:00 +22°C° 0 mm 3 mps 743 mmHg 70%
08:00 +25°C° 0 mm 3 mps 743 mmHg 61%
09:00 +26°C° 0 mm 3 mps 743 mmHg 57%
10:00 +28°C° 0 mm 3 mps 743 mmHg 53%
11:00 +29°C° 0 mm 3 mps 743 mmHg 48%
12:00 +28°C° 0.1 mm 3 mps 743 mmHg 53%
13:00 +27°C° 0.1 mm 3 mps 742 mmHg 57%
14:00 +27°C° 0.1 mm 3 mps 742 mmHg 62%
15:00 +25°C° 2.1 mm 3 mps 742 mmHg 72%
16:00 +23°C° 2.1 mm 2 mps 742 mmHg 82%
17:00 +21°C° 2.1 mm 1 mps 742 mmHg 92%
18:00 +21°C° 0.1 mm 1 mps 742 mmHg 92%
19:00 +20°C° 0.1 mm 2 mps 742 mmHg 92%
20:00 +19°C° 0.1 mm 2 mps 741 mmHg 92%
21:00 +19°C° 0 mm 2 mps 741 mmHg 93%
22:00 +18°C° 0 mm 2 mps 741 mmHg 93%
23:00 +18°C° 0 mm 2 mps 741 mmHg 93%

Day after tomorrow, 30 July, Friday

Time Temperature Precipitation Wind Pressure Humidity
00:00 +18°C° 0 mm 2 mps 741 mmHg 92%
01:00 +18°C° 0 mm 2 mps 742 mmHg 91%
02:00 +18°C° 0 mm 2 mps 742 mmHg 89%
03:00 +18°C° 0 mm 2 mps 742 mmHg 90%
04:00 +17°C° 0 mm 2 mps 742 mmHg 90%
05:00 +17°C° 0 mm 2 mps 742 mmHg 91%
06:00 +19°C° 0 mm 2 mps 742 mmHg 84%
07:00 +20°C° 0 mm 2 mps 742 mmHg 77%
08:00 +21°C° 0 mm 3 mps 742 mmHg 71%
09:00 +24°C° 0 mm 3 mps 742 mmHg 62%
10:00 +25°C° 0 mm 4 mps 742 mmHg 52%
11:00 +27°C° 0 mm 4 mps 742 mmHg 43%
12:00 +26°C° 0 mm 4 mps 742 mmHg 46%
13:00 +25°C° 0 mm 4 mps 742 mmHg 49%
14:00 +25°C° 0 mm 3 mps 742 mmHg 52%
15:00 +25°C° 0 mm 3 mps 742 mmHg 52%
16:00 +25°C° 0 mm 3 mps 741 mmHg 52%
17:00 +25°C° 0 mm 2 mps 741 mmHg 52%
18:00 +24°C° 0 mm 2 mps 741 mmHg 55%
19:00 +23°C° 0 mm 2 mps 741 mmHg 58%
20:00 +21°C° 0 mm 2 mps 741 mmHg 61%
21:00 +20°C° 0 mm 3 mps 741 mmHg 61%
22:00 +20°C° 0 mm 3 mps 741 mmHg 62%
23:00 +20°C° 0 mm 3 mps 741 mmHg 62%

31 July, Saturday

Time Temperature Precipitation Wind Pressure Humidity
00:00 +19°C° 0 mm 3 mps 741 mmHg 64%
01:00 +18°C° 0 mm 3 mps 741 mmHg 66%
02:00 +17°C° 0 mm 3 mps 741 mmHg 68%
03:00 +17°C° 0 mm 4 mps 741 mmHg 70%
04:00 +15°C° 0 mm 4 mps 741 mmHg 73%
05:00 +15°C° 0 mm 4 mps 741 mmHg 75%
06:00 +17°C° 0 mm 4 mps 741 mmHg 68%
07:00 +19°C° 0 mm 5 mps 741 mmHg 60%
08:00 +21°C° 0 mm 6 mps 741 mmHg 53%
09:00 +22°C° 0 mm 6 mps 742 mmHg 48%
10:00 +24°C° 0 mm 6 mps 742 mmHg 43%
11:00 +26°C° 0 mm 6 mps 742 mmHg 38%
12:00 +27°C° 0 mm 6 mps 742 mmHg 36%
13:00 +28°C° 0 mm 5 mps 742 mmHg 35%
14:00 +29°C° 0 mm 5 mps 741 mmHg 33%
15:00 +29°C° 0 mm 4 mps 741 mmHg 35%
16:00 +29°C° 0 mm 4 mps 741 mmHg 38%
17:00 +29°C° 0 mm 4 mps 741 mmHg 40%
18:00 +27°C° 0.1 mm 3 mps 741 mmHg 47%
19:00 +25°C° 0.1 mm 3 mps 740 mmHg 53%
20:00 +24°C° 0.1 mm 2 mps 740 mmHg 60%
21:00 +21°C° 1.2 mm 2 mps 740 mmHg 71%
22:00 +19°C° 1.2 mm 2 mps 740 mmHg 82%
23:00 +18°C° 1.2 mm 2 mps 740 mmHg 93%

1 August, Sunday

Time Temperature Precipitation Wind Pressure Humidity
00:00 +18°C° 0.7 mm 2 mps 740 mmHg 94%
01:00 +18°C° 0.7 mm 2 mps 740 mmHg 95%
02:00 +18°C° 0.7 mm 2 mps 740 mmHg 96%
03:00 +18°C° 0.2 mm 3 mps 740 mmHg 96%
04:00 +18°C° 0.2 mm 3 mps 740 mmHg 96%
05:00 +18°C° 0.2 mm 3 mps 740 mmHg 96%
06:00 +19°C° 0 mm 4 mps 740 mmHg 89%
07:00 +20°C° 0 mm 4 mps 741 mmHg 83%
08:00 +21°C° 0 mm 4 mps 741 mmHg 76%
09:00 +22°C° 0 mm 5 mps 741 mmHg 65%
10:00 +23°C° 0 mm 5 mps 741 mmHg 54%
11:00 +26°C° 0 mm 5 mps 742 mmHg 44%
12:00 +26°C° 0 mm 5 mps 742 mmHg 42%
13:00 +27°C° 0 mm 5 mps 742 mmHg 40%
14:00 +27°C° 0 mm 5 mps 742 mmHg 39%
15:00 +27°C° 0 mm 5 mps 742 mmHg 41%
16:00 +27°C° 0 mm 5 mps 742 mmHg 42%
17:00 +27°C° 0 mm 5 mps 742 mmHg 44%
18:00 +25°C° 0 mm 4 mps 742 mmHg 50%
19:00 +22°C° 0 mm 3 mps 742 mmHg 56%
20:00 +21°C° 0 mm 2 mps 742 mmHg 62%
21:00 +20°C° 0 mm 2 mps 742 mmHg 66%
22:00 +19°C° 0 mm 1 mps 743 mmHg 70%
23:00 +18°C° 0 mm 1 mps 743 mmHg 74%

2 August, Monday

Time Temperature Precipitation Wind Pressure Humidity
00:00 +18°C° 0 mm 1 mps 743 mmHg 75%
01:00 +18°C° 0 mm 1 mps 742 mmHg 75%
02:00 +18°C° 0 mm 1 mps 742 mmHg 76%
03:00 +18°C° 0.1 mm 1 mps 742 mmHg 79%
04:00 +17°C° 0.1 mm 2 mps 741 mmHg 82%
05:00 +17°C° 0.1 mm 2 mps 741 mmHg 86%
06:00 +17°C° 0.1 mm 3 mps 741 mmHg 85%
07:00 +17°C° 0.1 mm 3 mps 740 mmHg 85%
08:00 +17°C° 0.1 mm 3 mps 740 mmHg 84%
09:00 +18°C° 0.3 mm 4 mps 739 mmHg 83%
10:00 +19°C° 0.3 mm 4 mps 739 mmHg 83%
11:00 +20°C° 0.3 mm 4 mps 738 mmHg 82%
12:00 +20°C° 1.1 mm 5 mps 738 mmHg 85%
13:00 +20°C° 1.1 mm 5 mps 738 mmHg 87%
14:00 +20°C° 1.1 mm 5 mps 737 mmHg 90%
15:00 +20°C° 0.4 mm 5 mps 737 mmHg 90%
16:00 +19°C° 0.4 mm 6 mps 738 mmHg 90%
17:00 +17°C° 0.4 mm 7 mps 738 mmHg 90%
18:00 +16°C° 0 mm 6 mps 739 mmHg 91%
19:00 +15°C° 0 mm 6 mps 739 mmHg 91%
20:00 +14°C° 0 mm 6 mps 740 mmHg 92%
21:00 +13°C° 0 mm 5 mps 740 mmHg 93%
22:00 +13°C° 0 mm 4 mps 741 mmHg 95%
23:00 +12°C° 0 mm 3 mps 741 mmHg 96%
Show more